Redding, CA

9:06 PM PST on November 21, 2019 (GMT -0800)
Redding Municipal

Weather History for KRDD - September, 2019

Change the Weather History Date:

Tuesday, September 10, 2019

  Actual Average Record
Temperature  
Mean Temperature 73 °F -  
Max Temperature 84 °F 92 °F 112 °F (1945)
Min Temperature 61 °F 59 °F 50 °F (1994)
Degree Days  
Heating Degree Days 0    
Cooling Degree Days 8    
Growing Degree Days 22 (Base 50)    
Moisture  
Dew Point 46 °F    
Average Humidity 48    
Maximum Humidity 72    
Minimum Humidity 23    
Precipitation  
Precipitation 0.00 in 0.02 in 1.26 in (1893)
Month to date precipitation T 0.17  
Year to date precipitation 32.27 21.30  
Sea Level Pressure  
Sea Level Pressure 29.85 in    
Wind  
Wind Speed 4 mph (East)    
Max Wind Speed 13 mph    
Max Gust Speed 13 mph    
Visibility 10 miles    
Events      
T = Trace of Precipitation, MM = Missing Value Source: NWS Daily Summary

Daily Weather History Graph

Daily Weather History Graph

Search for Another Location

Airport or City:

Astronomy

Sep. 10, 2019 Rise Set
Actual Time 6:44 AM PDT 7:26 PM PDT
Civil Twilight 6:17 AM PDT 7:54 PM PDT
Nautical Twilight 5:44 AM PDT 8:26 PM PDT
Astronomical Twilight 5:11 AM PDT 9:00 PM PDT
Moon 6:07 PM PDT (9/10) 3:15 AM PDT (9/10)
Length of Visible Light 13h 36m
Length of Day
12h 41m
Waxing Gibbous, 90% of the Moon is Illuminated
Sep 10
Waxing Gibbous
Sep 13
Full
Sep 21
Last Quarter
Sep 28
New
Oct 5
First Quarter

Hourly Weather History & Observations

Time (PDT) Temp. Dew Point Humidity Pressure Visibility Wind Dir Wind Speed Gust Speed Precip Events Conditions
12:53 AM 68.0 °F 45.0 °F 43% 29.81 in 10.0 mi West 4.6 mph - N/A   Mostly Cloudy
1:53 AM 66.0 °F 44.1 °F 45% 29.81 in 10.0 mi ENE 4.6 mph - N/A   Overcast
2:53 AM 64.9 °F 45.0 °F 48% 29.81 in 10.0 mi North 4.6 mph - N/A   Overcast
3:53 AM 64.9 °F 43.0 °F 45% 29.82 in 10.0 mi NNE 3.5 mph - N/A   Overcast
4:53 AM 64.0 °F 45.0 °F 50% 29.84 in 10.0 mi ENE 3.5 mph - N/A   Overcast
5:53 AM 63.0 °F 46.9 °F 56% 29.85 in 10.0 mi ENE 3.5 mph - N/A   Mostly Cloudy
6:53 AM 61.0 °F 50.0 °F 67% 29.86 in 10.0 mi North 4.6 mph - N/A   Mostly Cloudy
7:53 AM 61.0 °F 52.0 °F 72% 29.88 in 10.0 mi NNW 4.6 mph - N/A   Partly Cloudy
8:53 AM 66.9 °F 48.0 °F 51% 29.88 in 10.0 mi Calm Calm - N/A   Scattered Clouds
9:53 AM 70.0 °F 45.0 °F 41% 29.89 in 10.0 mi Calm Calm - N/A   Partly Cloudy
10:53 AM 73.0 °F 46.9 °F 39% 29.88 in 10.0 mi East 9.2 mph - N/A   Clear
11:53 AM 75.9 °F 46.9 °F 36% 29.88 in 10.0 mi Variable 4.6 mph - N/A   Partly Cloudy
12:53 PM 77.0 °F 46.0 °F 33% 29.87 in 10.0 mi SSE 4.6 mph - N/A   Clear
1:53 PM 80.1 °F 45.0 °F 29% 29.84 in 10.0 mi Variable 6.9 mph - N/A   Clear
2:53 PM 82.0 °F 41.0 °F 23% 29.82 in 10.0 mi Calm Calm - N/A   Clear
3:53 PM 82.0 °F 41.0 °F 23% 29.81 in 10.0 mi Calm Calm - N/A   Scattered Clouds
4:53 PM 84.0 °F 42.1 °F 23% 29.81 in 10.0 mi SSE 8.1 mph - N/A   Scattered Clouds
5:53 PM 82.0 °F 42.1 °F 24% 29.81 in 10.0 mi ESE 4.6 mph - N/A   Scattered Clouds
6:53 PM 80.1 °F 43.0 °F 27% 29.81 in 10.0 mi SSE 4.6 mph - N/A   Partly Cloudy
9:53 PM 75.9 °F 50.0 °F 40% 29.90 in 10.0 mi SSE 3.5 mph - N/A   Overcast
10:53 PM 71.1 °F 50.0 °F 47% 29.91 in 10.0 mi SE 10.4 mph - N/A   Clear
11:53 PM 69.1 °F 51.1 °F 53% 29.92 in 10.0 mi West 3.5 mph - N/A   Clear